Time,TemperatureF,DewpointF,PressureIn,WindDirection,WindDirectionDegrees,WindSpeedMPH,WindSpeedGustMPH,Humidity,HourlyPrecipIn,Conditions,Clouds,dailyrainin,SolarRadiationWatts/m^2,SoftwareType,DateUTC
2015-07-01 00:02:00,71.1,67.7,30.20,SSW,193,3.8,8.1,89,0.00,RA,SKC,0.00,0.0,WeatherDisplay:10.37,2015-07-01 04:02:00,
2015-07-01 00:07:00,71.0,67.6,30.19,SE,141,3.6,5.8,89,0.00,RA,SKC,0.00,0.0,WeatherDisplay:10.37,2015-07-01 04:07:00,
2015-07-01 00:12:00,70.8,67.4,30.19,South,169,2.5,3.5,89,0.11,CLR,SKC,0.00,0.0,WeatherDisplay:10.37,2015-07-01 04:12:00,
2015-07-01 00:17:00,70.8,67.4,30.19,SSW,200,0.1,1.2,89,0.10,CLR,SKC,0.00,0.0,WeatherDisplay:10.37,2015-07-01 04:17:00,
2015-07-01 00:22:00,70.8,67.4,30.19,SSW,200,0.0,0.0,89,0.11,RA,SKC,0.01,0.0,WeatherDisplay:10.37,2015-07-01 04:22:00,
2015-07-01 00:27:00,70.8,67.7,30.19,SSW,200,0.0,0.0,90,0.10,RA,SKC,0.01,0.0,WeatherDisplay:10.37,2015-07-01 04:27:00,
2015-07-01 00:32:00,70.8,67.7,30.18,SSW,200,0.0,0.0,90,0.05,CLR,SKC,0.01,0.0,WeatherDisplay:10.37,2015-07-01 04:32:00,
2015-07-01 00:37:00,70.8,67.7,30.17,SSW,200,0.2,1.2,90,0.03,CLR,SKC,0.01,0.0,WeatherDisplay:10.37,2015-07-01 04:37:00,
2015-07-01 00:42:00,70.9,67.8,30.17,SSW,201,0.6,2.0,90,0.02,CLR,SKC,0.01,0.0,WeatherDisplay:10.37,2015-07-01 04:42:00,
2015-07-01 00:47:00,70.9,67.8,30.17,SSE,157,0.8,2.3,90,0.01,CLR,SKC,0.01,0.0,WeatherDisplay:10.37,2015-07-01 04:47:00,
2015-07-01 00:52:00,71.0,67.9,30.17,SSE,148,2.6,3.5,90,0.01,CLR,SKC,0.01,0.0,WeatherDisplay:10.37,2015-07-01 04:52:00,
2015-07-01 00:57:00,70.9,67.8,30.17,SSE,148,1.9,3.5,90,0.02,RA,SKC,0.02,0.0,WeatherDisplay:10.37,2015-07-01 04:57:00,
2015-07-01 01:02:00,71.0,67.9,30.16,SE,144,1.0,3.5,90,0.02,RA,SKC,0.02,0.0,WeatherDisplay:10.37,2015-07-01 05:02:00,
2015-07-01 01:07:00,71.0,67.9,30.16,SSE,154,0.9,2.3,90,0.02,CLR,SKC,0.02,0.0,WeatherDisplay:10.37,2015-07-01 05:07:00,
2015-07-01 01:12:00,71.2,68.1,30.16,SSE,154,1.1,3.5,90,0.02,CLR,SKC,0.02,0.0,WeatherDisplay:10.37,2015-07-01 05:12:00,
2015-07-01 01:18:00,71.3,68.5,30.16,SSE,154,1.0,2.3,91,0.02,CLR,SKC,0.02,0.0,WeatherDisplay:10.37,2015-07-01 05:18:00,
2015-07-01 01:23:00,71.3,68.5,30.16,SSE,154,0.2,1.2,91,0.01,CLR,SKC,0.02,0.0,WeatherDisplay:10.37,2015-07-01 05:23:00,
2015-07-01 01:28:00,71.3,68.5,30.16,SSE,154,0.0,0.0,91,0.01,CLR,SKC,0.02,0.0,WeatherDisplay:10.37,2015-07-01 05:28:00,
2015-07-01 01:33:00,71.4,68.6,30.16,SSE,154,0.0,0.0,91,0.01,CLR,SKC,0.02,0.0,WeatherDisplay:10.37,2015-07-01 05:33:00,
2015-07-01 01:38:00,71.5,68.7,30.16,SSE,154,0.0,0.0,91,0.01,CLR,SKC,0.02,0.0,WeatherDisplay:10.37,2015-07-01 05:38:00,
2015-07-01 01:43:00,71.6,68.8,30.16,SSE,154,0.0,0.0,91,0.01,CLR,SKC,0.02,0.0,WeatherDisplay:10.37,2015-07-01 05:43:00,
2015-07-01 01:48:00,71.6,68.8,30.16,SSE,154,0.0,0.0,91,0.01,CLR,SKC,0.02,0.0,WeatherDisplay:10.37,2015-07-01 05:48:00,
2015-07-01 01:53:00,71.5,68.7,30.15,SSE,154,0.0,0.0,91,0.01,CLR,SKC,0.02,0.0,WeatherDisplay:10.37,2015-07-01 05:53:00,
2015-07-01 01:58:00,71.6,68.8,30.15,SSE,154,0.0,0.0,91,0.00,CLR,SKC,0.02,0.0,WeatherDisplay:10.37,2015-07-01 05:58:00,
2015-07-01 02:03:00,71.7,68.9,30.14,SSE,154,0.0,0.0,91,0.00,CLR,SKC,0.02,0.0,WeatherDisplay:10.37,2015-07-01 06:03:00,
2015-07-01 02:08:00,71.7,68.9,30.14,SSE,154,0.0,0.0,91,0.00,CLR,SKC,0.02,0.0,WeatherDisplay:10.37,2015-07-01 06:08:00,
2015-07-01 02:13:00,71.7,68.9,30.13,SSE,154,0.0,0.0,91,0.00,CLR,SKC,0.02,0.0,WeatherDisplay:10.37,2015-07-01 06:13:00,
2015-07-01 02:18:00,71.7,68.9,30.13,SSE,154,0.0,0.0,91,0.00,CLR,SKC,0.02,0.0,WeatherDisplay:10.37,2015-07-01 06:18:00,
2015-07-01 02:23:00,71.8,69.0,30.13,SSE,154,0.0,0.0,91,0.00,CLR,SKC,0.02,0.0,WeatherDisplay:10.37,2015-07-01 06:23:00,
2015-07-01 02:28:00,72.1,69.3,30.12,SSE,154,0.0,0.0,91,0.00,CLR,SKC,0.02,0.0,WeatherDisplay:10.37,2015-07-01 06:28:00,
2015-07-01 02:33:00,72.4,69.6,30.11,SSE,154,1.3,2.3,91,0.00,CLR,SKC,0.02,0.0,WeatherDisplay:10.37,2015-07-01 06:33:00,
2015-07-01 02:38:00,72.6,69.8,30.11,South,176,0.9,2.3,91,0.00,CLR,SKC,0.02,0.0,WeatherDisplay:10.37,2015-07-01 06:38:00,
2015-07-01 02:43:00,72.5,69.7,30.11,South,176,0.0,0.0,91,0.00,CLR,SKC,0.02,0.0,WeatherDisplay:10.37,2015-07-01 06:43:00,
2015-07-01 02:48:00,72.4,69.6,30.10,South,171,1.1,3.5,91,0.00,CLR,SKC,0.02,0.0,WeatherDisplay:10.37,2015-07-01 06:48:00,
2015-07-01 02:53:00,72.4,69.6,30.10,SSE,148,1.9,3.5,91,0.00,CLR,SKC,0.02,0.0,WeatherDisplay:10.37,2015-07-01 06:53:00,
2015-07-01 02:58:00,72.3,69.5,30.10,SSE,148,0.0,0.0,91,0.00,CLR,SKC,0.02,0.0,WeatherDisplay:10.37,2015-07-01 06:58:00,
2015-07-01 03:03:00,72.3,69.5,30.10,SSE,148,0.0,0.0,91,0.00,CLR,SKC,0.02,0.0,WeatherDisplay:10.37,2015-07-01 07:03:00,